Weather History for Seretse Khama, Botswana

Change the Weather History Date:

Friday, January 18, 2013

  Actual Average Record
Temperature  
Mean Temperature 72 °F -  
Max Temperature 77 °F 86 °F 96 °F (1998)
Min Temperature 68 °F 65 °F 60 °F (2000)
Cooling Degree Days 8    
Growing Degree Days 22 (Base 50)    
Moisture  
Dew Point 68 °F    
Average Humidity 89    
Maximum Humidity 94    
Minimum Humidity 74    
Precipitation  
Precipitation 0.00 in - - ()
Sea Level Pressure  
Sea Level Pressure 29.98 in    
Wind  
Wind Speed 6 mph ()    
Max Wind Speed 9 mph    
Max Gust Speed -    
Visibility 6.1 miles    
Events Rain , Thunderstorm    
Averages and records for this station are not official NWS values.
T = Trace of Precipitation, MM = Missing Value Source: Averaged Metar Reports

Daily Weather History Graph

Daily Weather History Graph

Search for Another Location

Airport:

Trip Planner

Search our weather history database for the weather conditions in past years. The results will help you decide how hot, cold, wet, or windy it might be!

Date:

Astronomy

Jan. 18, 2013 Rise Set
Actual Time 5:43 AM CAT 7:09 PM CAT
Civil Twilight 5:18 AM CAT 7:34 PM CAT
Nautical Twilight 4:48 AM CAT 8:04 PM CAT
Astronomical Twilight 4:17 AM CAT 8:35 PM CAT
Moon 12:03 PM CAT (1/18) 11:38 PM CAT (1/18)
Length of Visible Light 14h 16m
Length of Day
13h 26m
Waxing Crescent, 44% of the Moon is Illuminated
Jan 18
Waxing Crescent
Jan 19
First Quarter
Jan 27
Full
Feb 3
Last Quarter
Feb 10
New

Hourly Weather History & Observations

Time (CAT) Temp. Dew Point Humidity Pressure Visibility Wind Dir Wind Speed Gust Speed Precip Events Conditions
12:00 AM 69.8 °F 66.2 °F 88% 30.04 in 6.2 mi ENE 5.8 mph - N/A   Mostly Cloudy
1:00 AM 69.8 °F 66.2 °F 88% 30.04 in 6.2 mi ENE 5.8 mph - N/A   Mostly Cloudy
2:00 AM 69.8 °F 66.2 °F 88% 30.01 in 6.2 mi East 6.9 mph - N/A   Mostly Cloudy
3:00 AM 69.8 °F 68.0 °F 94% 30.01 in 6.2 mi East 5.8 mph - N/A Rain Light Rain
4:00 AM 69.8 °F 66.2 °F 88% 29.98 in 3.1 mi ENE 5.8 mph - N/A Rain Rain
5:00 AM 69.8 °F 68.0 °F 94% 29.98 in 6.2 mi East 8.1 mph - N/A Rain Light Rain
6:00 AM 69.8 °F 68.0 °F 94% 30.01 in 6.2 mi ENE 8.1 mph - N/A Rain Light Rain
7:00 AM 69.8 °F 68.0 °F 94% 30.04 in 6.2 mi ENE 6.9 mph - N/A Rain Light Rain
8:00 AM 69.8 °F 68.0 °F 94% 30.04 in 6.2 mi NE 6.9 mph - N/A   Overcast
9:00 AM 69.8 °F 68.0 °F 94% 30.04 in 6.2 mi ENE 8.1 mph - N/A   Overcast
10:00 AM 71.6 °F 68.0 °F 88% 30.04 in 6.2 mi ENE 8.1 mph - N/A Rain Light Rain
11:00 AM 73.4 °F 68.0 °F 83% 30.01 in 6.2 mi NE 6.9 mph - N/A   Overcast
12:00 PM 73.4 °F 69.8 °F 88% 30.01 in 6.2 mi NE 5.8 mph - N/A Rain Light Rain
1:00 PM 75.2 °F 68.0 °F 78% 29.98 in 6.2 mi East 9.2 mph - N/A   Overcast
2:00 PM 77.0 °F 68.0 °F 74% 29.95 in 6.2 mi North 3.5 mph - N/A   Overcast
3:00 PM 73.4 °F 68.0 °F 83% 29.95 in 6.2 mi ESE 5.8 mph - N/A   Overcast
4:00 PM 71.6 °F 69.8 °F 94% 29.92 in 6.2 mi SSE 6.9 mph - N/A Rain , Thunderstorm Light Thunderstorms and Rain
5:00 PM 71.6 °F 68.0 °F 88% 29.92 in 6.2 mi South 3.5 mph - N/A   Partly Cloudy
6:00 PM 71.6 °F 68.0 °F 88% 29.92 in 6.2 mi East 8.1 mph - N/A   Partly Cloudy
7:00 PM 69.8 °F 68.0 °F 94% 29.92 in 6.2 mi ESE 6.9 mph - N/A   Scattered Clouds
8:00 PM 69.8 °F 66.2 °F 88% 29.92 in 6.2 mi East 4.6 mph - N/A   Scattered Clouds
9:00 PM 68.0 °F 66.2 °F 94% 29.95 in 6.2 mi SE 3.5 mph - N/A   Scattered Clouds
10:00 PM 68.0 °F 66.2 °F 94% 29.98 in 6.2 mi East 6.9 mph - N/A   Scattered Clouds
11:00 PM 68.0 °F 66.2 °F 94% 29.98 in 6.2 mi East 4.6 mph - N/A   Mostly Cloudy